Flag for Tanzania Weather past 2 weeks in Arusha, Tanzania

Now
64 °F

Passing clouds.


Feels Like: 64 °F
Forecast: 53 / 77 °F
Wind: 5 mph from Southeast

Location: Kenyatta Airport

Current Time: Sep 24, 2014 at 12:07:08 AM

Latest Report: Sep 23, 2014 at 11:00 PM


Visibility: N/A

Pressure: 30.24 "Hg

Humidity: 64%

Dew point: 52 °F

Location of ArushaLocation

Historic Weather in Arusha — Graph

°F

Arusha temperature yesterday

Maximum temperature yesterday: 79 °F (at 4:00 PM)
Minimum temperature yesterday: 54 °F (at 6:00 AM)
Average temperature yesterday: 68 °F

Past Weeks' High & Low Weather Summary

 TemperatureHumidityPressure
High84 °F (Sep 20, 3:30 PM)100% (Sep 9, 6:00 AM)30.30 "Hg (Sep 9, 6:00 AM)
Low48 °F (Sep 11, 6:00 AM)31% (Sep 20, 4:00 PM)30.04 "Hg (Sep 23, 4:30 AM)
Average66 °F67%30.18 "Hg
* Reported Sep 8 10:00 PM — Sep 23 10:00 PM, Arusha, Weather by CustomWeather, © 2014

Note: Actual official high and low records may vary slightly from our data, if they occured in-between our weather recording intervals... More about our weather records

Advertising

Arusha weather history for previous 24 hours

 ConditionsComfort  
Time TempWeatherWind HumidityBarometerVisibility
10:00 PM
Sep 23
68 °FPassing clouds.6 mph53%30.21 "HgN/A
9:00 PM70 °FPassing clouds.10 mph50%30.18 "HgN/A
8:00 PM72 °FPassing clouds.16 mph41%30.15 "HgN/A
7:30 PM73 °FPassing clouds.14 mph41%30.12 "HgN/A
7:00 PM73 °FPassing clouds.17 mph41%30.12 "HgN/A
6:30 PM75 °FPassing clouds.17 mph39%30.09 "HgN/A
6:00 PM77 °FPartly sunny.13 mph39%30.09 "HgN/A
5:30 PM79 °FScattered clouds.12 mph37%30.09 "HgN/A
5:00 PM79 °FScattered clouds.6 mph37%30.09 "HgN/A
4:30 PM79 °FScattered clouds.6 mph37%30.09 "HgN/A
4:00 PM79 °FPartly sunny.8 mph37%30.09 "HgN/A
3:00 PM77 °FPartly sunny.3 mph42%30.09 "HgN/A
2:30 PM77 °FPartly sunny.6 mph42%30.12 "HgN/A
2:00 PM77 °FPartly sunny.5 mph44%30.15 "HgN/A
1:30 PM75 °FPartly sunny.5 mph47%30.15 "HgN/A
1:00 PM73 °FPartly sunny.9 mph50%30.18 "HgN/A
12:30 PM72 °FPartly sunny.6 mph53%30.18 "HgN/A
12:00 PM72 °FPartly sunny.8 mph50%30.21 "HgN/A
11:30 AM70 °FPartly sunny.7 mph57%30.21 "HgN/A
11:00 AM70 °FPartly sunny.9 mph57%30.24 "HgN/A
10:30 AM68 °FPartly sunny.8 mph60%30.24 "HgN/A
10:00 AM68 °FPartly sunny.6 mph56%30.24 "HgN/A
9:30 AM64 °FPartly sunny.6 mph68%30.24 "HgN/A
9:00 AM61 °FPartly sunny.7 mph77%30.24 "HgN/A
8:30 AM61 °FPartly sunny.6 mph77%30.24 "HgN/A
8:00 AM59 °FPartly sunny.5 mph82%30.24 "HgN/A
7:00 AM57 °FPartly sunny.3 mph88%30.21 "HgN/A
6:30 AM57 °FBroken clouds.6 mph88%30.21 "HgN/A
6:00 AM54 °FPartly cloudy.No wind94%30.18 "HgN/A
5:00 AM55 °FPassing clouds.3 mph88%30.18 "HgN/A
4:30 AM55 °FPassing clouds.No wind94%30.04 "HgN/A
4:00 AM55 °FPassing clouds.No wind94%30.15 "HgN/A
3:00 AM55 °FPassing clouds.3 mph94%30.15 "HgN/A
2:00 AM55 °FClear.6 mph94%30.18 "Hg10 mi
1:00 AM59 °FClear.8 mph82%30.18 "Hg10 mi
12:00 AM61 °FClear.5 mph77%30.18 "Hg10 mi
Weather by CustomWeather, © 2014

See weather overviewHow to use our weather pages